[[{"header":{"parameterUnit":"m.s-1","parameterCategory":1,"la1":30.2991,"la2":30.254,"lo1":-89.0895,"lo2":-89.0444,"dy":0.0017,"dx":0.0017,"nx":28,"ny":28,"refTime":"2023-10-16T21:00:00:Z","depth":0,"parameterNumber":2,"parameterNumberName":"U-component_of_WINDS"},"data":[0,0,0,0,0,0,0,0,0,0,0,0,0,0,0,0,0,0,0,0,0,0,0,0,0,0,0,0,0,0,0,0,0,0,0,0,0,0,0,0,0,0,0,0,0,0,0,0,0,0,0,0,0,0,0,0,0,0,1.0418,1.0417,0,1.0324,1.0323,1.0322,1.0292,1.0292,1.0293,1.0293,1.0192,1.0189,1.0185,0,0,0,0,0,0,0,0,0,0,0,0,0,1.0565,1.0563,1.0418,1.0417,1.0416,1.0324,1.0323,1.0322,1.0292,1.0292,1.0293,1.0293,1.0193,1.0189,1.0185,0,0,0,0,0,0,0,0,0,0,0,0,0,1.0489,1.0562,1.0418,1.039,1.0386,1.0324,1.0323,1.0321,1.0291,1.0292,1.0293,1.0293,1.0194,1.0189,1.0185,1.0143,0,0,1.017,1.0168,0,0,0,0,0,0,0,0,1.0494,1.0484,1.0395,1.0392,1.0388,1.032,1.0338,1.0261,1.0291,1.0327,1.0293,1.0294,1.0234,1.0226,1.0206,1.0138,1.0134,1.017,1.0167,1.0165,1.0164,0,0,0,0,0,0,0,1.0499,1.0488,1.0381,1.0394,1.0389,1.038,1.037,1.0323,1.0278,1.0324,1.0322,1.0311,1.0232,1.0211,1.0204,1.0132,1.017,1.0166,1.0163,1.0161,1.0022,1.0021,0,0,0,0,0,0,1.051,1.0492,1.0384,1.0378,1.0444,1.0377,1.0365,1.0341,1.0278,1.0269,1.0311,1.031,1.0219,1.0209,1.02,1.0145,1.0165,1.0161,1.0158,1.0023,1.0022,1.0021,0,0,0,0,0,0,1.0513,1.05,1.0387,1.0434,1.0419,1.0373,1.0346,1.0339,1.0318,1.0268,1.0259,1.0299,1.0219,1.0207,1.0157,1.0141,1.0159,1.0154,1.0024,1.0023,1.0021,1.0036,0,0,0,0,0,0,1.0518,1.0502,1.0487,1.0434,1.0417,1.0348,1.0346,1.0337,1.0311,1.0309,1.0254,1.0246,1.0218,1.0164,1.0152,1.0135,1.0151,1.0025,1.0023,1.0022,1.0036,1.0035,1.0034,0,0,0,0,0,1.0523,1.0494,1.0486,1.0473,1.0397,1.0347,1.0337,1.0307,1.031,1.0293,1.0261,1.0247,1.0145,1.0159,1.0146,1.0127,1.0026,1.0024,1.0022,1.0037,1.0035,1.0034,0,0,0,0,0,0,1.0544,1.0486,1.0477,1.0431,1.0394,1.0342,1.032,1.0307,1.0267,1.0267,1.0231,1.0218,1.0171,1.0144,1.0161,1.0082,1.0085,1.008,1.0101,1.0099,1.0098,1.0104,1.0147,0,0,0,0,0,1.0544,1.0509,1.046,1.0424,1.0406,1.0366,1.0343,1.0324,1.0283,1.0267,1.0231,1.0191,1.015,1.0123,1.0082,1.0033,1.0019,1.0013,1.0012,1.0011,1.0006,0.9976,0.9972,1.0014,1.0014,1.0014,0,0,1.0541,1.0506,1.0486,1.0427,1.0396,1.0359,1.0353,1.0315,1.0286,1.0261,1.0211,1.0184,1.0136,1.0086,1.0062,1.0062,0.9992,1.0008,1.0008,1.0004,0.9973,0.9969,0.9966,1.0013,1.0013,1.0013,0,0,1.0519,1.0489,1.0455,1.0424,1.0378,1.0352,1.0344,1.0294,1.0275,1.0225,1.0205,1.017,1.01,1.0066,1.004,1.0004,0.9989,0.9992,0.9984,0.9955,0.9952,0.9948,0.9933,0.9928,0.9988,0.9988,0.9988,0,1.0521,1.0467,1.0438,1.0401,1.0374,1.0352,1.0315,1.0286,1.0228,1.021,1.0211,1.0122,1.0089,1.003,1.0021,1.0001,0.9989,0.9997,0.9955,0.9951,0.9948,0.9933,0.9927,0.9989,0.9989,0.9989,0.9989,0,1.0471,1.0433,1.0411,1.0357,1.0328,1.0291,1.0255,1.0229,1.0212,1.0186,1.0134,1.0094,1.0043,1.0028,1.0011,0.9966,0.9967,0.9962,0.9964,0.9945,0.993,0.9924,0.9989,0.9989,0.9989,0.9989,0,0,1.0458,1.0389,1.0381,1.0356,1.0303,1.0272,1.0233,1.0186,1.0163,1.0124,1.0089,1.003,1.0025,0.9996,0.9974,0.9949,0.992,0.9947,0.9945,0.9941,0.9865,0.9867,0.9861,0.9911,0.991,0.9909,0.9868,0,1.0426,1.0358,1.0331,1.0274,1.0237,1.0215,1.0181,1.0144,1.0117,1.0081,1.0051,1.0009,1.0007,0.9989,0.9963,0.9929,0.9904,0.9932,0.9875,0.9873,0.9885,0.9853,0.9856,0.9819,0.9862,0.9861,0.986,0,1.038,1.0342,1.0282,1.0233,1.0216,1.0186,1.0139,1.0106,1.0062,1.0045,1.0012,0.9992,0.9948,0.9955,0.9892,0.9912,0.9887,0.9867,0.9865,0.9856,0.9864,0.9842,0.9807,0.98,0.9851,0.9852,0.9853,0,1.0374,1.0307,1.0262,1.0241,1.0183,1.0162,1.0137,1.0094,1.0067,1.0026,1.0007,0.9961,0.9935,0.9899,0.9866,0.9875,0.9806,0.9811,0.9788,0.9788,0.9772,0.9773,0.973,0.9761,0.9761,0.9761,0.9761,0,1.034,1.0304,1.0258,1.023,1.0188,1.0157,1.0115,1.0088,1.005,1.0014,0.9993,0.9959,0.992,0.9881,0.9855,0.9806,0.9795,0.9777,0.977,0.9778,0.978,0.9759,0.976,0.976,0.976,0.976,0.976,0,1.0325,1.0294,1.0242,1.0192,1.0178,1.0149,1.0105,1.0075,1.0048,1.0004,0.9991,0.9948,0.9901,0.9866,0.9805,0.9787,0.9734,0.9728,0.9749,0.9744,0.9723,0.9724,0.9663,0.9652,0.9693,0.9692,0.9692,0,1.0305,1.0276,1.0223,1.0198,1.0173,1.0134,1.0106,1.0074,1.0045,0.9993,0.997,0.9922,0.9881,0.9806,0.9768,0.9721,0.9712,0.9694,0.9704,0.9712,0.9708,0.9709,0.9705,0.9691,0.9691,0.9691,0.9691,0,1.0271,1.0257,1.0218,1.0174,1.0141,1.0104,1.0067,1.0048,1.0009,0.9977,0.993,0.9898,0.9836,0.9787,0.9736,0.9707,0.9691,0.9688,0.968,0.9685,0.9698,0.9688,0.9742,0.9689,0.9689,0.9689,0.9689,0.9689,1.025,1.0223,1.0181,1.0138,1.0107,1.0072,1.0042,1.0011,0.9972,0.9919,0.9903,0.9852,0.9808,0.9738,0.9708,0.9667,0.9667,0.9656,0.9652,0.9649,0.9648,0.9707,0.9658,0.9658,0.9658,0.9658,0.9658,0,1.0213,1.0185,1.0146,1.0095,1.0061,1.0051,1.0009,0.998,0.9937,0.9898,0.9859,0.9802,0.9755,0.9713,0.9664,0.9638,0.9629,0.9626,0.9626,0.9619,0.9653,0.9664,0.9634,0.9634,0.9634,0.9634,0.9634,0.9634,1.019,1.0142,1.0123,1.0059,1.003,0.9982,0.9958,0.9925,0.9894,0.9833,0.9794,0.9767,0.9726,0.9673,0.9628,0.9617,0.9598,0.9596,0.9582,0.9614,0.9617,0.962,0.963,0.9593,0.9593,0.9552,0.9551,0.9551]},{"header":{"parameterUnit":"m.s-1","parameterCategory":1,"la1":30.2991,"la2":30.254,"lo1":-89.0895,"lo2":-89.0444,"dy":0.0017,"dx":0.0017,"nx":28,"ny":28,"refTime":"2023-10-16T21:00:00:Z","depth":0,"parameterNumber":3,"parameterNumberName":"V-component_of_WINDS"},"data":[0,0,0,0,0,0,0,0,0,0,0,0,0,0,0,0,0,0,0,0,0,0,0,0,0,0,0,0,0,0,0,0,0,0,0,0,0,0,0,0,0,0,0,0,0,0,0,0,0,0,0,0,0,0,0,0,0,0,-4.0697,-4.0698,0,-4.0845,-4.0847,-4.0848,-4.0803,-4.08,-4.0797,-4.0794,-4.0941,-4.0948,-4.0954,0,0,0,0,0,0,0,0,0,0,0,0,0,-4.0371,-4.0377,-4.0697,-4.0699,-4.07,-4.0845,-4.0847,-4.0849,-4.0803,-4.08,-4.0796,-4.0792,-4.0939,-4.0947,-4.0955,0,0,0,0,0,0,0,0,0,0,0,0,0,-4.0515,-4.0379,-4.0696,-4.0695,-4.0697,-4.0844,-4.0847,-4.0849,-4.0804,-4.08,-4.0795,-4.0791,-4.0936,-4.0946,-4.0956,-4.1112,0,0,-4.0987,-4.0992,0,0,0,0,0,0,0,0,-4.0507,-4.0527,-4.0694,-4.0696,-4.0698,-4.0801,-4.0786,-4.0937,-4.0805,-4.0763,-4.0794,-4.0788,-4.0898,-4.0911,-4.0949,-4.1119,-4.1125,-4.0988,-4.0995,-4.0999,-4.1002,0,0,0,0,0,0,0,-4.0497,-4.052,-4.0755,-4.0696,-4.0699,-4.0686,-4.0701,-4.0814,-4.0855,-4.0767,-4.0764,-4.0782,-4.0898,-4.0939,-4.0952,-4.1128,-4.0988,-4.0997,-4.1003,-4.1007,-4.1433,-4.1438,0,0,0,0,0,0,-4.0486,-4.0512,-4.075,-4.076,-4.0589,-4.0696,-4.0713,-4.0772,-4.0853,-4.0861,-4.0786,-4.0779,-4.0924,-4.094,-4.0957,-4.1145,-4.0999,-4.1008,-4.1014,-4.1428,-4.1434,-4.144,0,0,0,0,0,0,-4.0479,-4.0508,-4.0744,-4.0635,-4.0664,-4.0706,-4.0773,-4.0778,-4.0819,-4.0868,-4.0875,-4.0821,-4.0921,-4.0943,-4.1074,-4.115,-4.1013,-4.1022,-4.1422,-4.143,-4.1437,-4.1523,0,0,0,0,0,0,-4.047,-4.0506,-4.0566,-4.0637,-4.067,-4.0861,-4.0778,-4.0784,-4.0837,-4.083,-4.0902,-4.091,-4.0919,-4.1059,-4.1084,-4.1161,-4.103,-4.1415,-4.1425,-4.1435,-4.1513,-4.1532,-4.1549,0,0,0,0,0,-4.0459,-4.0584,-4.057,-4.0599,-4.0748,-4.0865,-4.0884,-4.0893,-4.0843,-4.0904,-4.0936,-4.0908,-4.1137,-4.1073,-4.1101,-4.1182,-4.141,-4.1422,-4.1434,-4.1505,-4.1529,-4.1548,0,0,0,0,0,0,-4.0519,-4.0593,-4.0578,-4.073,-4.0792,-4.0858,-4.0935,-4.0918,-4.0994,-4.0984,-4.0991,-4.1007,-4.1143,-4.1175,-4.1103,-4.1337,-4.1266,-4.1284,-4.1311,-4.1334,-4.1351,-4.134,-4.1039,0,0,0,0,0,-4.0551,-4.0642,-4.07,-4.0829,-4.0861,-4.0893,-4.0944,-4.0946,-4.101,-4.1035,-4.1076,-4.1138,-4.1224,-4.128,-4.1362,-4.1518,-4.1532,-4.1587,-4.1605,-4.1619,-4.1634,-4.1718,-4.1743,-4.1478,-4.1478,-4.1478,0,0,-4.0616,-4.0667,-4.0724,-4.0842,-4.089,-4.0983,-4.0915,-4.1016,-4.1084,-4.105,-4.1177,-4.121,-4.1279,-4.1423,-4.1489,-4.1455,-4.1711,-4.1634,-4.1645,-4.1652,-4.1733,-4.1758,-4.178,-4.1486,-4.1484,-4.1483,0,0,-4.0783,-4.0831,-4.0943,-4.0993,-4.1067,-4.1088,-4.1115,-4.1183,-4.1204,-4.1332,-4.1308,-4.1389,-4.1537,-4.1587,-4.1632,-4.1818,-4.1795,-4.1844,-4.1937,-4.2019,-4.204,-4.2058,-4.2124,-4.2148,-4.1859,-4.1859,-4.1859,0,-4.0854,-4.0995,-4.1003,-4.1107,-4.1159,-4.1133,-4.1246,-4.1294,-4.139,-4.1426,-4.1387,-4.1573,-4.1617,-4.1773,-4.1818,-4.1856,-4.1886,-4.1836,-4.2036,-4.2055,-4.2072,-4.2136,-4.216,-4.1865,-4.1864,-4.1864,-4.1863,0,-4.1079,-4.1176,-4.1258,-4.1354,-4.1415,-4.1523,-4.1546,-4.1607,-4.1603,-4.1627,-4.1757,-4.181,-4.1902,-4.1939,-4.1936,-4.2095,-4.2071,-4.2034,-4.1963,-4.2103,-4.2163,-4.2187,-4.1873,-4.1871,-4.1869,-4.1868,0,0,-4.1288,-4.1387,-4.1417,-4.146,-4.154,-4.1615,-4.1721,-4.1813,-4.1864,-4.1932,-4.202,-4.2146,-4.2113,-4.2164,-4.2166,-4.2238,-4.2381,-4.2192,-4.2193,-4.2225,-4.2559,-4.2587,-4.2615,-4.2366,-4.2371,-4.2375,-4.2553,0,-4.1462,-4.165,-4.166,-4.1831,-4.1921,-4.1897,-4.199,-4.2048,-4.2073,-4.2152,-4.2179,-4.2268,-4.2217,-4.2248,-4.2318,-4.2349,-4.2448,-4.2336,-4.2448,-4.2452,-4.2432,-4.2646,-4.2676,-4.2842,-4.2577,-4.2581,-4.2583,0,-4.169,-4.1765,-4.1945,-4.2013,-4.2051,-4.2134,-4.2218,-4.2294,-4.2359,-4.2372,-4.243,-4.2421,-4.2529,-4.2454,-4.2601,-4.2525,-4.2571,-4.2593,-4.2599,-4.261,-4.2526,-4.2663,-4.2895,-4.292,-4.262,-4.2617,-4.2614,0,-4.1825,-4.1972,-4.2098,-4.2136,-4.2217,-4.2276,-4.2312,-4.2373,-4.2427,-4.2501,-4.2536,-4.262,-4.2666,-4.2731,-4.2745,-4.2689,-4.2893,-4.2819,-4.2906,-4.2906,-4.295,-4.2947,-4.3193,-4.2979,-4.2979,-4.2978,-4.2978,0,-4.2018,-4.2129,-4.216,-4.2238,-4.2361,-4.2371,-4.2493,-4.2525,-4.2579,-4.2662,-4.2646,-4.2723,-4.2737,-4.2818,-4.2829,-4.2949,-4.297,-4.2983,-4.2985,-4.2985,-4.2983,-4.3015,-4.3004,-4.2985,-4.2984,-4.2982,-4.2981,0,-4.219,-4.2215,-4.2352,-4.2418,-4.2437,-4.2525,-4.2581,-4.2655,-4.2678,-4.2783,-4.2808,-4.2844,-4.2938,-4.2959,-4.3069,-4.3077,-4.322,-4.321,-4.3199,-4.3198,-4.3284,-4.3276,-4.356,-4.3597,-4.3358,-4.3361,-4.3362,0,-4.2312,-4.2397,-4.2472,-4.2527,-4.2567,-4.2656,-4.2711,-4.2724,-4.2782,-4.2863,-4.2927,-4.3019,-4.3094,-4.3245,-4.328,-4.3364,-4.3356,-4.345,-4.3369,-4.3366,-4.3358,-4.3353,-4.3362,-4.3466,-4.3468,-4.347,-4.3472,0,-4.2525,-4.2534,-4.2615,-4.2702,-4.2769,-4.2837,-4.2902,-4.2948,-4.2969,-4.3035,-4.3131,-4.3189,-4.3303,-4.3395,-4.348,-4.3515,-4.3498,-4.3497,-4.3522,-4.3523,-4.3513,-4.352,-4.3241,-4.3491,-4.3489,-4.3487,-4.3486,-4.3486,-4.2676,-4.2751,-4.2816,-4.2907,-4.2957,-4.3018,-4.3092,-4.3124,-4.3205,-4.33,-4.3302,-4.3407,-4.3469,-4.3581,-4.3622,-4.3704,-4.3675,-4.371,-4.3719,-4.3728,-4.3736,-4.35,-4.3719,-4.3719,-4.3718,-4.3718,-4.3717,0,-4.2889,-4.293,-4.3014,-4.3106,-4.3178,-4.3155,-4.3226,-4.3287,-4.338,-4.344,-4.3514,-4.3625,-4.3714,-4.3756,-4.3843,-4.39,-4.3894,-4.3923,-4.3919,-4.3928,-4.3757,-4.3727,-4.3926,-4.3926,-4.3926,-4.3926,-4.3926,-4.3926,-4.3009,-4.3134,-4.315,-4.3299,-4.3339,-4.3443,-4.3485,-4.3541,-4.3589,-4.3714,-4.3788,-4.3815,-4.3868,-4.3959,-4.4039,-4.4049,-4.4082,-4.4115,-4.4121,-4.3961,-4.3939,-4.3919,-4.3891,-4.4121,-4.4122,-4.4284,-4.4286,-4.4287]}]]